Regional Weather Roundup
Issued by NWS Sterling, VA

Home | Current Version | Previous Version | Graphics & Text | Print | Product List | Glossary On
Versions: 1 2 3 4 5 6 7 8 9 10 11 12 13 14 15 16 17 18 19 20 21 22 23 24 25 26 27 28 29 30 31 32 33 34 35 36 37 38 39 40 41 42 43 44 45 46 47 48 49 50
000
ASUS41 KLWX 040410
RWRLWX

REGIONAL WEATHER ROUNDUP
NATIONAL WEATHER SERVICE BALTIMORE MD/WASHINGTON DC
1200 AM EDT MON MAY 04 2015

Note: "FAIR" indicates few or no clouds below 12,000 feet
with no significant weather and/or obstructions to visibility.
 TC=TEMPERATURE CELSIUS

 * =Non NWS site. Station does not report precipitation (e.g. rain,
    snow, etc.), thunder, or fog.

DCZ001-MDZ009-015-VAZ040>042-051-053>054-040500-
WASHINGTON METRO

CITY           SKY/WX    TMP DP  RH WIND       PRES   REMARKS
WASHINGTON NAT CLEAR     65  48  54 S7        30.16R
DULLES         PTCLDY    59  46  62 S3        30.15S
ANDREWS AFB    CLEAR     62  46  55 S7        30.15S
FT BELVOIR     CLEAR     53  49  86 CALM      30.16R
QUANTICO       CLEAR     59  51  75 NW3       30.17R
COLLEGE PARK*  CLEAR     57  48  72 CALM      30.15S
LEESBURG*      CLEAR     59  50  72 S3        30.16S
MANASSAS*      CLEAR     52  48  87 CALM      30.16S
GAITHERSBURG*  CLEAR     57  45  62 CALM      30.19S

$$

MDZ006>007-011-014-040500-
BALTIMORE METRO

CITY           SKY/WX    TMP DP  RH WIND       PRES   REMARKS
BWI AIRPORT    PTCLDY    65  43  44 SW7       30.14S
MD SCIENCE CTR   N/A     67  43  41 MISG      30.15R
MARTIN STATE   CLEAR     59  52  77 CALM      30.16R
ANNAPOLIS      CLEAR     60  50  69 CALM      30.15R
FORT MEADE*    CLEAR     52  46  82 CALM      30.18R

$$

MDZ012-015-019>023-040500-
MARYLAND EASTERN SHORE

CITY           SKY/WX    TMP DP  RH WIND       PRES   REMARKS
OCEAN CITY     CLEAR     52  51  97 CALM      30.18R FOG
SALISBURY      CLEAR     53  49  86 CALM      30.17R
BAY BRIDGE AP*   N/A    N/A N/A N/A S5        30.15S
CAMBRIDGE*     CLEAR     57  46  67 SE3       30.16S
EASTON*        CLEAR     63  47  57 S3        30.20R

$$

MDZ017>025-040500-
SOUTHERN MARYLAND

CITY           SKY/WX    TMP DP  RH WIND       PRES   REMARKS
PATUXENT RIVER CLEAR     63  46  54 SW10      30.16R
ST INIGOES     CLEAR     59  48  67 CALM      30.16R
LEONARDTOWN*   CLEAR     61  41  48 CALM      30.18S

$$

MDZ003>005-040500-
NORTH CENTRAL MARYLAND

CITY           SKY/WX    TMP DP  RH WIND       PRES   REMARKS
FREDERICK*     PTCLDY    54  46  76 CALM      30.17S
HAGERSTOWN APT CLEAR     65  42  43 S5        30.14S
WESTMINSTER*   CLEAR     63  48  59 CALM      30.16R

$$

MDZ501>502-040500-
WESTERN MARYLAND

CITY           SKY/WX    TMP DP  RH WIND       PRES   REMARKS
OAKLAND*       CLEAR     59  36  41 SW3       30.22S
CUMBERLAND*    CLEAR     55  43  62 NE7       30.19R

$$

VAZ025>031-040500-
SHENANDOAH VALLEY

CITY           SKY/WX    TMP DP  RH WIND       PRES   REMARKS
WINCHESTER*    CLEAR     63  37  39 W5        30.16R
FRONT ROYAL*   FAIR      59  45  58 SW6       30.16R
LURAY*         FAIR      54  48  82 CALM      30.18R
NEW MARKET*    FAIR      50  47  90 CALM      30.17S
STAUNTON*      CLEAR     53  46  77 CALM      30.22R
WAYNESBORO*    FAIR      56  40  56 SW3       30.20S

$$

WVZ021-048>050-054>055-040500-
EASTERN WEST VIRGINIA PANHANDLE

CITY           SKY/WX    TMP DP  RH WIND       PRES   REMARKS
MARTINSBURG    CLEAR     57  45  64 S3        30.15R
PETERSBURG*    CLEAR     51  45  79 CALM      30.18S

$$

VAZ036>039-050-040500-
CENTRAL FOOTHILLS

CITY           SKY/WX    TMP DP  RH WIND       PRES   REMARKS
CHARLOTTESVILL CLEAR     59  43  55 CALM      30.18R
CULPEPER*      NOT AVBL
ORANGE*        CLEAR     54  46  76 CALM      30.19R
GORDONSVILLE*  FAIR      53  48  83 CALM      30.17R
WARRENTON*     FAIR      50  49  96 CALM      30.16S

$$

VAZ055>057-040500-
NORTH AND CENTRAL PIEDMONT

CITY           SKY/WX    TMP DP  RH WIND       PRES   REMARKS
FREDERICKSBRG* CLEAR     60  53  79 SE3       30.16S
STAFFORD*      CLEAR     53  46  75 CALM      30.21R

$$

NCZ024-NYZ072-PAZ021-071-VAZ022-071-040500-
OTHER REGIONAL OBSERVATIONS

CITY           SKY/WX    TMP DP  RH WIND       PRES   REMARKS
NEW YORK CITY  CLEAR     61  44  53 CALM      30.17R
PHILADELPHIA   CLEAR     62  46  55 W3        30.16R
PITTSBURGH     MOCLDY    62  43  49 CALM      30.13S
ROANOKE        CLEAR     63  45  51 CALM      30.23R
RICHMOND       PTCLDY    60  47  61 CALM      30.18R
RALEIGH        PTCLDY    63  48  58 S9        30.23R

$$

ANZ530>537-040500-
MARINE OBSERVATIONS

STATION/POSITION TIME  TEMP    WIND        PRES
                       AIR SEA DIR/SP/G
                 (UTC) (F)     (DEG/KT/KT) (MB)
THOMAS PT LIGHT  0400   63 60  200/  6/  6 1021.7R
BALT KEY BRIDGE  0300   67     130/  2/  4 1020.4R
COVE POINT       0300   68     220/ 10/ 11 1021.7R
LEWISETTA        0300   67 64              1021.0R
SOLOMONS ISLAND  0306      61                N/A
PINEY POINT      0300          200/  4/  5   N/A

$$



USA.gov is the U.S. government's official web portal to all federal, state and local government web resources and services.